Regional Weather Roundup
Issued by NWS

Home | Current Version | Previous Version | Text Only | Print | Product List | Glossary On
Versions: 1 2 3 4 5 6 7 8 9 10 11 12 13 14 15 16 17 18 19 20 21 22 23 24 25 26 27 28 29 30 31 32 33 34 35 36 37 38 39 40 41 42 43 44 45 46 47 48 49 50
000
ASUS43 KLSX 290959
RWRMO

WEATHER SUMMARY FOR MISSOURI
NATIONAL WEATHER SERVICE SPRINGFIELD MO
500 AM CDT TUE JUL 29 2014

NOTE: "FAIR" INDICATES FEW OR NO CLOUDS BELOW 12,000 FEET WITH NO
       SIGNIFICANT WEATHER AND/OR OBSTRUCTIONS TO VISIBILITY.
       CURRENT SKY AND/OR WEATHER CONDITIONS ARE NOT AVAILABLE FOR
       CHILLICOTHE AND FARMINGTON.

MOZ001>031-035>038-043-044-053-054-291100-
...NORTHERN AND WESTERN MISSOURI...

CITY           SKY/WX    TMP DP  RH WIND       PRES   REMARKS
KANSAS CTY INT PTCLDY    61  57  87 NW5       30.16S
KANSAS C DTWN  CLEAR     64  59  83 CALM      30.15S
LEE`S SUMMIT   CLEAR     59  57  93 SW3       30.17R
ST JOSEPH      PTCLDY    55  55 100 CALM      30.16S
KIRKSVILLE     CLEAR     54  52  93 W3        30.16S

$$
MOZ066>068-077>081-088>096-101>105-291100-
...SOUTHWEST MISSOURI...

CITY           SKY/WX    TMP DP  RH WIND       PRES   REMARKS
SPRINGFIELD    CLEAR     60  55  83 CALM      30.16S
JOPLIN         CLEAR     60  57  89 CALM      30.17R

$$
MOZ032>034-039>042-045>050-055>058-069>072-291100-
...CENTRAL MISSOURI...

CITY           SKY/WX    TMP DP  RH WIND       PRES   REMARKS
COLUMBIA       PTCLDY    58  54  86 W5        30.16R
JEFFERSON CITY PTCLDY    57  54  89 CALM      30.16R
ROLLA          CLEAR     55  51  86 CALM      30.14S
SEDALIA        CLEAR     61  54  77 CALM      30.16S
OSAGE BEACH    PTCLDY    55  52  88 CALM      30.16R

$$
MOZ051-052-059>065-291100-
...EAST CENTRAL MISSOURI...

CITY           SKY/WX    TMP DP  RH WIND       PRES   REMARKS
ST LOUIS INTL  CLEAR     60  55  83 CALM      30.14R
SPIRIT OF STL  CLEAR     53  52  96 CALM      30.13R FOG
ST CHARLES     CLEAR     54  52  93 CALM      30.13R FOG

$$
MOZ072>076-082>087-097>100-106>115-291100-
...SOUTH CENTRAL AND SOUTHEAST MISSOURI...

CITY           SKY/WX    TMP DP  RH WIND       PRES   REMARKS
CAPE GIRARDEAU CLEAR     57  55  93 CALM      30.12R
FARMINGTON     CLEAR     55  52  88 CALM      30.16R
POPLAR BLUFF   CLEAR     59  55  87 NW5       30.11R
WEST PLAINS    CLEAR     57  53  86 N3        30.17R

$$



USA.gov is the U.S. government's official web portal to all federal, state and local government web resources and services.